GFSNIL_sfc_rhum_021.txt.gz
RH
43 51 49 49 48 52 52 54 54 54 57 58 63 75 79 86 89 85 90 81 81 74
48 51 51 49 49 54 54 40 53 56 56 59 60 71 79 87 82 89 89 87 78 68
50 52 50 52 52 49 53 49 54 55 58 58 58 62 80 82 82 77 78 72 67 66
52 53 50 51 52 49 52 50 50 53 55 57 60 63 65 67 66 70 75 72 71 67
54 48 49 49 48 55 52 52 51 52 55 59 59 59 60 66 66 71 64 67 70 71
49 48 47 46 49 54 53 54 51 50 57 61 53 55 59 63 66 65 69 67 68 70
49 48 47 48 48 51 55 53 51 54 58 63 56 54 54 60 66 66 64 68 67 65
52 48 48 50 50 52 54 51 53 57 61 61 60 52 62 58 63 62 64 64 55 56
49 49 54 53 52 54 56 55 57 58 57 60 54 77 69 64 61 57 62 65 64 58
56 53 52 45 47 45 47 53 55 57 59 62 74 79 72 65 58 60 73 68 63 57
52 47 46 45 46 53 56 56 58 58 59 74 72 81 74 67 60 69 74 68 67 66
54 52 54 56 61 61 61 61 62 59 60 79 83 80 72 63 73 77 76 70 68 69
55 57 59 63 67 64 61 60 62 61 66 77 84 79 70 65 93 83 91 80 72 64
58 64 66 64 62 64 66 68 82 80 76 82 84 83 73 68 82 90 93 89 89 85

GFSNIL_sfc_rhum_024.txt.gz
RH
49 52 51 50 52 56 56 56 54 55 58 61 63 77 84 89 91 88 91 86 86 82
52 53 54 51 53 57 54 48 58 59 59 60 59 63 79 91 87 87 89 88 87 81
50 50 53 54 54 54 52 51 54 54 57 58 61 67 75 89 85 84 82 77 81 73
52 53 53 54 54 56 53 52 51 54 55 55 62 62 64 66 70 75 78 78 76 74
52 54 52 54 52 59 54 56 54 54 54 58 63 62 62 65 67 75 71 71 73 71
55 55 53 55 58 61 57 60 58 54 54 59 65 61 61 65 68 68 69 68 69 70
55 54 58 58 60 62 62 63 58 57 59 63 64 60 58 64 67 68 65 68 68 65
56 61 61 61 60 62 64 57 57 60 64 66 64 59 66 62 67 65 65 65 56 59
65 60 60 57 58 59 59 55 58 62 68 68 58 70 76 70 66 60 62 65 65 58
58 56 59 56 54 53 55 58 59 61 66 68 72 81 77 72 61 60 69 72 63 58
55 58 57 62 65 68 68 64 66 66 65 68 73 83 78 72 62 66 75 73 69 70
64 64 69 73 75 77 69 67 66 63 68 70 80 85 79 68 68 74 77 72 71 70
66 73 80 84 81 72 68 65 68 71 70 77 84 86 79 69 88 83 88 81 75 66
83 84 85 78 69 67 74 79 84 86 86 82 85 88 80 76 80 84 86 87 85 83

GFSNIL_sfc_rhum_027.txt.gz
RH
58 60 50 49 58 59 56 58 55 57 57 59 62 79 86 88 93 91 92 90 91 86
53 49 52 54 52 55 58 53 58 56 58 61 60 66 73 91 91 91 91 92 89 92
47 49 52 54 52 52 55 55 58 58 58 60 62 67 73 90 88 83 84 80 84 87
57 58 53 49 52 53 54 56 56 57 59 58 63 65 71 71 68 74 80 82 83 79
53 56 56 55 54 58 54 60 61 62 60 59 62 64 64 66 64 71 78 74 77 76
54 57 56 57 60 66 64 64 62 62 61 60 64 70 70 68 71 76 73 75 76 73
61 52 52 55 64 68 66 67 65 62 61 64 65 66 67 68 73 76 74 76 77 75
61 54 56 62 66 70 69 66 63 62 65 70 68 63 72 70 75 75 72 70 61 64
64 64 67 65 68 70 65 58 60 60 69 74 64 72 79 78 76 70 69 69 68 62
67 64 64 59 58 62 64 67 68 72 66 70 75 78 82 81 73 70 69 71 69 60
60 62 64 66 71 73 78 84 81 69 69 73 69 80 84 84 70 69 70 76 73 70
66 67 73 78 86 90 92 75 72 68 72 76 78 81 86 83 72 70 73 74 73 73
77 81 86 91 93 91 75 71 74 79 82 82 83 82 87 81 85 81 82 83 80 78
91 93 92 91 86 78 74 81 85 86 89 89 88 85 87 85 80 80 81 82 84 81

GFSNIL_sfc_rhum_030.txt.gz
RH
77 77 63 57 56 53 56 57 57 60 63 60 72 82 83 86 91 92 92 90 92 88
79 69 65 74 60 59 58 55 59 59 64 63 61 65 76 85 89 93 92 92 92 91
76 75 72 61 65 68 65 53 61 64 61 63 63 66 72 80 89 93 93 88 84 87
76 73 70 66 65 56 56 61 64 61 62 60 62 67 72 83 87 82 79 81 84 83
72 72 66 58 52 56 56 61 58 62 61 61 62 68 72 71 64 73 78 79 83 84
67 58 54 52 54 60 61 62 62 62 62 62 65 70 73 72 72 74 76 79 80 78
60 57 57 56 60 63 63 64 63 63 64 66 65 66 70 70 75 77 78 80 80 78
66 65 64 70 68 70 67 63 62 64 64 67 71 64 73 75 78 79 81 81 78 78
76 78 77 68 70 71 69 64 61 64 70 78 68 73 78 82 83 80 78 76 73 65
84 80 78 67 63 64 67 70 76 80 85 83 74 79 82 85 88 82 76 73 69 66
73 66 68 67 70 79 83 90 91 92 80 74 68 78 81 85 90 81 76 73 72 71
72 73 78 85 91 93 94 96 95 79 81 77 81 82 83 89 91 80 74 69 73 72
82 86 90 95 96 97 94 84 82 75 81 84 88 83 83 89 93 86 81 77 76 78
91 93 93 92 91 92 94 86 88 87 86 86 89 88 84 86 92 87 84 77 76 77

GFSNIL_sfc_rhum_033.txt.gz
RH
74 71 69 72 78 67 53 45 50 49 53 56 68 69 64 60 61 66 63 64 61 52
78 75 74 72 66 61 51 45 54 56 65 56 55 70 71 57 62 67 70 66 65 61
79 75 72 70 70 60 55 47 54 58 53 52 61 52 59 54 59 64 65 61 63 60
80 77 77 73 71 62 57 50 51 60 52 61 61 56 58 56 56 63 63 63 58 57
76 77 77 74 68 64 53 52 55 56 58 52 56 57 60 63 54 62 60 54 57 56
73 74 73 71 67 60 54 57 60 54 60 60 60 56 58 60 56 54 53 53 56 54
70 69 68 62 58 56 51 64 60 57 52 52 49 52 67 72 58 58 56 58 59 55
61 56 56 58 65 66 64 59 60 57 60 59 62 73 87 63 59 58 58 60 57 57
58 53 66 73 74 73 70 68 54 54 63 72 83 95 85 77 60 59 60 57 56 54
62 69 76 73 69 69 71 72 80 86 85 91 90 83 82 84 60 59 56 57 54 51
61 62 64 67 76 87 88 92 93 89 88 86 66 86 85 84 61 59 58 58 57 56
61 66 78 86 91 93 94 90 83 84 85 91 85 82 83 79 65 65 62 58 56 55
66 74 78 81 82 87 83 81 88 90 85 77 68 74 83 81 73 75 70 63 58 74
73 79 82 85 88 91 91 82 78 75 71 68 68 65 82 84 75 77 74 69 64 61

GFSNIL_sfc_rhum_036.txt.gz
RH
77 74 70 63 71 73 73 67 59 48 42 40 62 53 57 48 66 52 45 48 44 35
80 74 65 62 71 69 67 55 49 47 46 56 50 55 48 52 49 45 52 51 48 42
74 71 68 65 67 67 66 53 49 49 49 57 59 50 52 60 43 49 49 44 45 44
72 70 72 72 72 72 67 55 56 49 50 53 49 48 53 41 43 47 45 45 44 44
71 77 76 78 74 73 67 60 51 47 48 57 44 40 44 47 39 49 54 44 45 43
79 79 79 79 76 72 68 62 52 44 46 52 48 45 44 49 64 73 57 43 42 42
71 73 75 74 74 73 71 59 50 63 60 60 42 45 52 77 87 70 52 49 48 47
64 62 62 62 60 58 58 55 60 65 64 65 60 57 84 85 85 81 63 52 46 47
54 52 55 56 60 67 67 63 67 69 62 62 71 99 96 91 85 76 55 51 48 46
50 51 55 57 60 64 68 70 77 76 69 72 65 92 92 94 77 72 57 50 48 42
51 52 51 54 62 74 80 85 86 78 67 64 75 92 93 95 81 58 51 47 45 45
53 55 60 66 72 74 68 68 67 74 74 81 86 92 94 82 56 50 49 44 44 44
52 54 59 64 66 67 64 72 79 83 86 84 72 74 80 74 59 58 57 51 47 66
58 65 68 73 75 73 67 59 61 62 58 55 58 56 79 81 68 66 66 60 55 52

GFSNIL_sfc_rhum_039.txt.gz
RH
81 78 76 74 76 70 62 62 74 74 67 59 51 46 61 70 58 56 52 49 58 41
76 74 72 77 73 72 68 71 78 70 62 57 51 65 65 62 67 59 61 64 52 46
70 73 70 69 77 69 69 70 67 64 58 57 62 55 56 56 54 58 53 46 47 50
63 67 74 76 76 72 70 68 61 56 56 61 65 58 54 57 55 49 55 49 58 58
62 67 78 79 79 76 73 69 64 56 60 64 56 52 56 60 46 46 64 67 78 66
75 79 82 84 83 76 76 72 65 61 63 56 55 53 55 57 67 71 81 82 70 56
76 81 81 79 80 81 80 80 74 66 60 66 51 56 63 78 81 81 75 72 60 55
73 69 75 78 80 78 80 76 71 70 66 64 69 71 78 78 75 70 85 84 71 61
56 55 59 58 58 60 63 61 67 68 76 72 69 96 96 88 61 76 82 88 69 55
48 51 53 50 50 56 58 57 66 68 76 76 80 96 95 92 70 88 86 84 77 56
49 49 48 48 51 55 62 69 78 77 74 67 63 91 92 95 91 86 69 58 48 47
48 51 54 59 62 63 62 64 66 62 67 75 78 91 94 89 65 55 54 45 43 42
47 50 56 63 66 67 67 68 65 72 79 83 68 82 91 79 62 64 62 55 50 63
51 56 60 62 62 62 62 56 59 55 52 47 51 54 82 83 70 82 86 76 72 67